N121SL KDEN-KEGE

Flight info

Callsign N121SL
Flight time 0h 25m
Altitude 22000
Route ZIMMR4 ZIMMR DCT CULCH DCT
Aircraft A388/J-SADE2E3FGHIJ3J4J5M1RWXY/LB1D1

Departure

Time 2026-05-06 23:58
Airport Denver International Airport (KDEN)

Arrival

Time 2026-05-07 00:23
Airport Eagle County Regional Airport (KEGE)
Time Latitude Longitude Altitude Speed Heading
2026-05-06 23:20 39.85800 -104.67545 5371 ft 0 kts
2026-05-06 23:45 39.85793 -104.67545 5367 ft 2 kts
2026-05-06 23:46 39.85772 -104.67545 5367 ft 2 kts 358°
2026-05-06 23:46 39.85761 -104.67545 5367 ft 2 kts 359°
2026-05-06 23:46 39.85744 -104.67545 5366 ft 2 kts 359°
2026-05-06 23:46 39.85724 -104.67545 5368 ft 5 kts 359°
2026-05-06 23:47 39.85692 -104.67544 5366 ft 5 kts 359°
2026-05-06 23:47 39.85659 -104.67543 5367 ft 5 kts 359°
2026-05-06 23:47 39.85627 -104.67542 5368 ft 5 kts 352°
2026-05-06 23:47 39.85611 -104.67507 5366 ft 5 kts 285°
2026-05-06 23:48 39.85610 -104.67495 5366 ft 0 kts 271°
2026-05-06 23:52 39.85613 -104.67608 5371 ft 17 kts 271°
2026-05-06 23:53 39.85606 -104.67763 5370 ft 17 kts 261°
2026-05-06 23:53 39.85593 -104.67920 5371 ft 18 kts 270°
2026-05-06 23:53 39.85594 -104.68056 5371 ft 0 kts 271°
2026-05-06 23:55 39.85595 -104.68136 5368 ft 13 kts 270°
2026-05-06 23:55 39.85587 -104.68304 5369 ft 21 kts 245°
2026-05-06 23:55 39.85475 -104.68365 5369 ft 18 kts 189°
2026-05-06 23:56 39.85318 -104.68402 5368 ft 23 kts 187°
2026-05-06 23:56 39.85198 -104.68465 5367 ft 16 kts 256°
2026-05-06 23:56 39.85195 -104.68677 5368 ft 35 kts 266°
2026-05-06 23:56 39.85186 -104.68995 5367 ft 33 kts 270°
2026-05-06 23:57 39.85189 -104.69278 5370 ft 30 kts 272°
2026-05-06 23:57 39.85199 -104.69539 5368 ft 28 kts 273°
2026-05-06 23:57 39.85248 -104.69647 5369 ft 13 kts 345°
2026-05-06 23:57 39.85539 -104.69657 5370 ft 86 kts
2026-05-06 23:58 39.86435 -104.69642 5367 ft 164 kts
2026-05-06 23:58 39.87657 -104.69635 5954 ft 173 kts 359°
2026-05-06 23:58 39.88848 -104.69631 6866 ft 175 kts 359°
2026-05-06 23:58 39.90098 -104.69627 7539 ft 185 kts 354°
2026-05-06 23:59 39.91359 -104.70035 7902 ft 193 kts 330°
2026-05-06 23:59 39.92415 -104.71184 8086 ft 207 kts 304°
2026-05-06 23:59 39.92979 -104.72942 8195 ft 227 kts 277°
2026-05-06 23:59 39.92995 -104.75093 8574 ft 248 kts 270°
2026-05-07 00:00 39.93014 -104.77461 8998 ft 270 kts 272°
2026-05-07 00:00 39.93057 -104.79932 9877 ft 273 kts 273°
2026-05-07 00:00 39.93100 -104.82410 10800 ft 274 kts 274°
2026-05-07 00:00 39.93139 -104.84904 11647 ft 276 kts 273°
2026-05-07 00:01 39.93173 -104.87387 12481 ft 278 kts 274°
2026-05-07 00:01 39.93206 -104.89919 13315 ft 280 kts 274°
2026-05-07 00:01 39.93246 -104.92475 14119 ft 282 kts 274°
2026-05-07 00:01 39.93307 -104.95048 14746 ft 287 kts 275°
2026-05-07 00:02 39.93376 -104.97675 15376 ft 292 kts 276°
2026-05-07 00:02 39.93444 -105.00312 15929 ft 300 kts 276°
2026-05-07 00:02 39.93517 -105.03129 16100 ft 320 kts 276°
2026-05-07 00:02 39.93591 -105.06126 16367 ft 337 kts 276°
2026-05-07 00:03 39.93659 -105.09202 16937 ft 342 kts 276°
2026-05-07 00:03 39.93726 -105.12325 17523 ft 348 kts 276°
2026-05-07 00:03 39.93793 -105.15470 18100 ft 353 kts 277°
2026-05-07 00:03 39.93863 -105.18705 18630 ft 359 kts 277°
2026-05-07 00:04 39.93935 -105.21981 19157 ft 362 kts 278°
2026-05-07 00:04 39.94168 -105.25250 19645 ft 364 kts 282°
2026-05-07 00:04 39.94439 -105.28555 20160 ft 368 kts 282°
2026-05-07 00:04 39.94707 -105.31892 20675 ft 372 kts 282°
2026-05-07 00:05 39.94967 -105.35234 21147 ft 376 kts 282°
2026-05-07 00:05 39.95229 -105.38630 21662 ft 379 kts 283°
2026-05-07 00:05 39.95496 -105.42071 22077 ft 384 kts 283°
2026-05-07 00:05 39.95779 -105.45609 22138 ft 398 kts 283°
2026-05-07 00:06 39.96073 -105.49284 22110 ft 415 kts 282°
2026-05-07 00:06 39.96372 -105.53048 22119 ft 429 kts 282°
2026-05-07 00:06 39.96681 -105.56985 22112 ft 443 kts 282°
2026-05-07 00:06 39.96983 -105.60991 22125 ft 437 kts 282°
2026-05-07 00:07 39.97264 -105.64869 22131 ft 423 kts 282°
2026-05-07 00:07 39.97533 -105.68697 22145 ft 423 kts 281°
2026-05-07 00:07 39.97751 -105.72484 22151 ft 424 kts 281°
2026-05-07 00:07 39.97950 -105.76317 22160 ft 423 kts 280°
2026-05-07 00:08 39.98147 -105.80144 22173 ft 424 kts 280°
2026-05-07 00:08 39.98350 -105.83982 22181 ft 423 kts 281°
2026-05-07 00:08 39.98556 -105.87807 22053 ft 418 kts 281°
2026-05-07 00:08 39.98760 -105.91579 21520 ft 415 kts 281°
2026-05-07 00:09 39.98961 -105.95329 20936 ft 411 kts 280°
2026-05-07 00:09 39.99156 -105.98990 20129 ft 408 kts 280°
2026-05-07 00:09 39.99351 -106.02658 19357 ft 402 kts 280°
2026-05-07 00:09 39.99542 -106.06272 18592 ft 397 kts 280°
2026-05-07 00:10 39.99730 -106.09856 17691 ft 393 kts 279°
2026-05-07 00:10 39.99916 -106.13385 17021 ft 386 kts 278°
2026-05-07 00:10 40.00101 -106.16857 16353 ft 381 kts 278°
2026-05-07 00:10 40.00282 -106.20277 15903 ft 370 kts 277°
2026-05-07 00:11 40.00444 -106.23500 15685 ft 350 kts 277°
2026-05-07 00:11 40.00596 -106.26584 15500 ft 331 kts 277°
2026-05-07 00:11 40.00743 -106.29504 15332 ft 313 kts 277°
2026-05-07 00:11 40.00884 -106.32283 15083 ft 300 kts 277°
2026-05-07 00:12 40.01024 -106.34980 14626 ft 296 kts 277°
2026-05-07 00:12 40.01161 -106.37612 14189 ft 291 kts 276°
2026-05-07 00:12 40.01295 -106.40243 13981 ft 280 kts 275°
2026-05-07 00:12 40.01077 -106.42680 13948 ft 275 kts 251°
2026-05-07 00:13 40.00034 -106.44845 13954 ft 296 kts 227°
2026-05-07 00:13 39.98394 -106.46561 13946 ft 305 kts 220°
2026-05-07 00:13 39.96677 -106.48220 13946 ft 306 kts 220°
2026-05-07 00:13 39.94969 -106.49872 13947 ft 304 kts 220°
2026-05-07 00:14 39.93302 -106.51493 13942 ft 301 kts 220°
2026-05-07 00:14 39.91619 -106.53143 13936 ft 304 kts 220°
2026-05-07 00:14 39.89920 -106.54818 13858 ft 304 kts 220°
2026-05-07 00:14 39.88246 -106.56460 13795 ft 296 kts 220°
2026-05-07 00:15 39.86644 -106.58034 13662 ft 286 kts 220°
2026-05-07 00:15 39.85095 -106.59553 13484 ft 270 kts 220°
2026-05-07 00:15 39.83626 -106.60953 13347 ft 254 kts 214°
2026-05-07 00:15 39.82047 -106.61842 13276 ft 238 kts 198°
2026-05-07 00:16 39.80530 -106.62132 13002 ft 210 kts 189°
2026-05-07 00:16 39.79084 -106.62340 12084 ft 212 kts 191°
2026-05-07 00:16 39.77601 -106.62591 11287 ft 213 kts 191°
2026-05-07 00:16 39.76206 -106.62826 10994 ft 189 kts 192°
2026-05-07 00:17 39.74976 -106.63029 10699 ft 174 kts 192°
2026-05-07 00:17 39.73805 -106.63221 10385 ft 166 kts 192°
2026-05-07 00:17 39.72681 -106.63408 10397 ft 161 kts 192°
2026-05-07 00:17 39.71534 -106.63601 10413 ft 172 kts 192°
2026-05-07 00:18 39.70344 -106.63813 10408 ft 173 kts 197°
2026-05-07 00:18 39.69312 -106.64509 10310 ft 163 kts 230°
2026-05-07 00:18 39.68577 -106.65628 10165 ft 163 kts 234°
2026-05-07 00:18 39.67830 -106.66719 10118 ft 161 kts 232°
2026-05-07 00:19 39.67082 -106.67794 10126 ft 161 kts 237°
2026-05-07 00:19 39.66677 -106.69105 10121 ft 158 kts 266°
2026-05-07 00:19 39.66565 -106.70527 10059 ft 157 kts 265°
2026-05-07 00:19 39.66423 -106.71919 9924 ft 154 kts 265°
2026-05-07 00:20 39.66274 -106.73292 9549 ft 155 kts 264°
2026-05-07 00:20 39.66120 -106.74677 9244 ft 153 kts 264°
2026-05-07 00:20 39.65971 -106.76037 9085 ft 154 kts 264°
2026-05-07 00:20 39.65817 -106.77466 8880 ft 162 kts 264°
2026-05-07 00:21 39.65650 -106.78930 8584 ft 164 kts 263°
2026-05-07 00:21 39.65488 -106.80361 8384 ft 161 kts 263°
2026-05-07 00:21 39.65332 -106.81807 8118 ft 162 kts 264°
2026-05-07 00:21 39.65190 -106.83251 7858 ft 160 kts 264°
2026-05-07 00:22 39.65046 -106.84664 7608 ft 158 kts 264°
2026-05-07 00:22 39.64899 -106.86087 7380 ft 160 kts 262°
2026-05-07 00:22 39.64725 -106.87528 7113 ft 161 kts 262°
2026-05-07 00:22 39.64566 -106.88962 6849 ft 161 kts 262°
2026-05-07 00:23 39.64408 -106.90414 6570 ft 162 kts 262°
2026-05-07 00:23 39.64270 -106.91650 6519 ft 99 kts 262°
2026-05-07 00:23 39.64212 -106.92185 6499 ft 32 kts 262°
2026-05-07 00:23 39.64143 -106.92269 6496 ft 12 kts 173°
2026-05-07 00:24 39.64104 -106.92180 6502 ft 19 kts 88°
2026-05-07 00:24 39.64120 -106.92023 6509 ft 16 kts 81°
2026-05-07 00:24 39.64134 -106.91897 6516 ft 13 kts 82°
2026-05-07 00:24 39.64146 -106.91754 6522 ft 23 kts 84°
2026-05-07 00:25 39.64164 -106.91582 6534 ft 0 kts 84°
2026-05-07 00:25 39.64162 -106.91568 6534 ft 3 kts 131°
2026-05-07 00:25 39.64126 -106.91553 6533 ft 7 kts 168°
2026-05-07 00:25 39.64085 -106.91544 6533 ft 5 kts 171°
2026-05-07 00:26 39.64073 -106.91542 6533 ft 0 kts 172°